Regional Weather Roundup
Issued by NWS

Home | Current Version | Previous Version | Text Only | Print | Product List | Glossary On
Versions: 1 2 3 4 5 6 7 8 9 10 11 12 13 14 15 16 17 18 19 20 21 22 23 24 25 26 27 28 29 30 31 32 33 34 35 36 37 38 39 40 41 42 43 44 45 46 47 48 49 50
000
ASUS43 KTOP 230708
RWRKS

WEATHER ROUNDUP FOR KANSAS
NATIONAL WEATHER SERVICE GOODLAND KS
200 AM CDT TUE MAY 23 2017

NOTE:  "FAIR" INDICATES FEW OR NO CLOUDS BELOW 12,000 FEET WITH NO
SIGNIFICANT WEATHER AND/OR OBSTRUCTIONS TO VISIBILITY.

KSZ001>006-013>018-027>032-041>047-230800-
NORTHWEST KANSAS

CITY           SKY/WX    TMP DP  RH WIND       PRES   REMARKS
GOODLAND       CLOUDY    44  42  93 N15       30.11S
HAYS           CLOUDY    53  47  79 N24       30.02R
HILL CITY      PTCLDY    49  47  93 N10       30.06R
RUSSELL        CLOUDY    53  50  89 N15       30.00S
$$

KSZ061>065-074>080-084>089-230800-
SOUTHWEST KANSAS

CITY           SKY/WX    TMP DP  RH WIND       PRES   REMARKS
DODGE CITY     LGT RAIN  52  47  83 N9        30.04S
ELKHART          N/A     50  38  63 NW10        N/A
GARDEN CITY    LGT RAIN  52  46  80 NW17G28   30.08R
GREAT BEND     CLOUDY    54  52  93 N17       29.99R
LIBERAL        CLOUDY    54  47  77 NW14      30.09R
PRATT          CLOUDY    51  47  86 NW13      29.97S
$$

KSZ066>073-081>083-090>101-230800-
SOUTHEAST KANSAS

CITY           SKY/WX    TMP DP  RH WIND       PRES   REMARKS
CHANUTE        CLOUDY    60  56  86 W3        29.88F
COFFEYVILLE    CLEAR     58  57  97 W6        29.89F
HUTCHINSON     CLOUDY    57  56  96 CALM      29.92F
MEDICINE LODGE   N/A     56  51  84 N8        29.93F
NEWTON         CLOUDY    56  55  97 W6        29.93S
PARSONS        MOCLDY    59  56  89 SW3       29.90F
WICHITA INTL   CLOUDY    56  56 100 W3        29.92F
WICHITA JABRA  CLOUDY    57  57 100 W8        29.91F
WICHITA MCCONL CLOUDY    57  55  94 W6        29.92F FOG
WINFIELD       CLOUDY    58  57  97 W8        29.93F FOG
$$

KSZ007>012-019>026-033>040-048>060-102>105-230800-
NORTHEAST KANSAS

CITY           SKY/WX    TMP DP  RH WIND       PRES   REMARKS
CONCORDIA      LGT RAIN  53  52  96 N14       29.99R
EMPORIA        FOG       51  51 100 NW6       29.90R VSB 1/4
LAWRENCE       FOG       54  54 100 CALM      29.89S VSB<1/4
MANHATTAN      CLOUDY    57  53  86 W7        29.92R
MARYSVILLE     CLOUDY    54  52  94 NW13      29.93R
OLATHE IND     CLOUDY    55  55 100 S3        29.89F FOG
OLATHE EXE     CLOUDY    54  54 100 CALM      29.89S FOG
SALINA         CLOUDY    57  54  89 NW16      29.97R
TOPEKA BILLARD CLOUDY    54  54 100 CALM      29.88F FOG
TOPEKA FORBES  FOG       52  52 100 CALM      29.89S VSB 1/2
$$




USA.gov is the U.S. government's official web portal to all federal, state and local government web resources and services.